FW9685 Weather Reports


Display with metric or nautical units.
time (UTC)temp
F
wind
direction
speed
MPH
gust
MPH
rain 1hr
in
rain 24hr
in
rain mn
in
humidity
%
barometer
mb
20260904131637 79 187 13.0 20.0 0.00 0.00 0.00 66 1015.3
20260904130104 78 180 10.0 19.0 0.00 0.00 0.00 66 1015.3
20260904124555 78 185 15.0 20.0 0.00 0.00 0.00 65 1014.9
20260904123106 79 194 10.0 18.0 0.00 0.00 0.00 63 1015.0
20260904121600 79 178 10.0 21.0 0.00 0.00 0.00 61 1014.9
20260904120104 79 192 12.0 19.0 0.00 0.00 0.00 59 1015.0
20260904114601 80 194 12.0 19.0 0.00 0.00 0.00 58 1015.1
20260904113108 80 201 13.0 21.0 0.00 0.00 0.00 56 1015.0
20260904111606 81 194 14.0 22.0 0.00 0.00 0.00 54 1014.6
20260904104606 82 194 17.0 25.0 0.00 0.00 0.00 51 1014.6
20260904103111 82 205 14.0 25.0 0.00 0.00 0.00 48 1014.5
20260904101601 82 198 14.0 21.0 0.00 0.00 0.00 47 1014.7
20260904100059 82 195 12.0 17.0 0.00 0.00 0.00 46 1014.5
20260904094601 82 194 11.0 17.0 0.00 0.00 0.00 45 1014.4
20260904093107 83 201 13.0 18.0 0.00 0.00 0.00 44 1014.5
20260904091610 84 198 14.0 22.0 0.00 0.00 0.00 43 1014.5
20260904084607 85 193 15.0 24.0 0.00 0.00 0.00 41 1014.3
20260904083112 85 189 15.0 23.0 0.00 0.00 0.00 40 1014.5
20260904081602 85 192 11.0 20.0 0.00 0.00 0.00 39 1014.5
20260904074610 85 196 9.0 16.0 0.00 0.00 0.00 38 1014.5
20260904073104 86 193 10.0 17.0 0.00 0.00 0.00 38 1014.5
20260904071600 87 184 11.0 22.0 0.00 0.00 0.00 37 1014.4
20260904070129 87 213 15.0 26.0 0.00 0.00 0.00 38 1014.6
20260904064601 87 179 14.0 23.0 0.00 0.00 0.00 38 1014.6
20260904063107 83 184 8.0 14.0 0.00 0.00 0.00 42 1014.6
20260904061600 83 198 7.0 10.0 0.00 0.00 0.00 42 1014.5
20260904060103 84 216 9.0 11.0 0.00 0.00 0.00 41 1014.5
20260904054605 83 184 7.0 12.0 0.00 0.00 0.00 41 1014.4
20260904053101 84 230 5.0 8.0 0.00 0.00 0.00 41 1014.5
20260904051623 84 233 3.0 8.0 0.00 0.00 0.00 42 1014.2
20260904050107 84 260 7.0 11.0 0.00 0.00 0.00 41 1014.1
20260904044612 85 263 9.0 14.0 0.00 0.00 0.00 41 1014.0
20260904043101 85 250 8.0 12.0 0.00 0.00 0.00 41 1014.2
20260904041611 86 245 11.0 17.0 0.00 0.00 0.00 40 1014.3
20260904040111 86 248 8.0 16.0 0.00 0.00 0.00 38 1014.3
20260904034613 86 246 4.0 7.0 0.00 0.00 0.00 37 1014.2
20260904033104 86 255 3.0 6.0 0.00 0.00 0.00 36 1014.4
20260904031558 87 260 2.0 9.0 0.00 0.00 0.00 35 1014.2
20260904024605 88 276 7.0 10.0 0.00 0.00 0.00 33 1013.6
20260904023104 90 56 0.0 2.0 0.00 0.00 0.00 29 1013.3
20260904021610 91 0 2.0 4.0 0.00 0.00 0.00 28 1013.2
20260904020106 92 108 4.0 7.0 0.00 0.00 0.00 24 1013.0
20260904014640 93 109 5.0 8.0 0.00 0.00 0.00 24 1012.9
20260904013103 94 106 7.0 10.0 0.00 0.00 0.00 23 1012.7
20260904011626 95 107 7.0 10.0 0.00 0.00 0.00 22 1012.7
20260904010109 96 118 8.0 12.0 0.00 0.00 0.00 22 1012.9
20260904004622 96 118 8.0 14.0 0.00 0.00 0.00 22 1012.7
20260904003104 97 105 13.0 16.0 0.00 0.00 0.00 21 1012.4
20260904001559 97 114 6.0 11.0 0.00 0.00 0.00 22 1012.7
20260904000100 98 140 9.0 15.0 0.00 0.00 0.00 22 1012.7
20260903234601 98 109 8.0 13.0 0.00 0.00 0.00 22 1012.7
20260903233112 98 128 7.0 14.0 0.00 0.00 0.00 22 1012.5
20260903231600 99 78 9.0 14.0 0.00 0.00 0.00 22 1012.5
20260903230105 99 111 11.0 15.0 0.00 0.00 0.00 22 1012.5
20260903224603 98 130 8.0 17.0 0.00 0.00 0.00 23 1012.5
20260903223115 99 113 8.0 21.0 0.00 0.00 0.00 23 1012.4
20260903221607 99 202 3.0 15.0 0.00 0.00 0.00 23 1012.5
20260903220127 99 116 10.0 20.0 0.00 0.00 0.00 23 1012.8
20260903214601 99 177 8.0 17.0 0.00 0.00 0.00 24 1012.9
20260903213108 98 232 3.0 14.0 0.00 0.00 0.00 25 1012.8
20260903211605 98 98 5.0 12.0 0.00 0.00 0.00 23 1013.2
20260903210111 99 122 9.0 15.0 0.00 0.00 0.00 24 1013.3
20260903204602 100 167 4.0 10.0 0.00 0.00 0.00 24 1013.4
20260903203109 99 79 11.0 15.0 0.00 0.00 0.00 25 1013.6
20260903201608 98 258 5.0 12.0 0.00 0.00 0.00 25 1013.8
20260903200114 98 282 5.0 12.0 0.00 0.00 0.00 25 1014.3
20260903194603 98 202 8.0 19.0 0.00 0.00 0.00 25 1014.5
20260903193102 97 184 6.0 11.0 0.00 0.00 0.00 26 1014.7
20260903191605 97 143 5.0 15.0 0.00 0.00 0.00 27 1014.9
20260903190059 98 136 5.0 11.0 0.00 0.00 0.00 26 1015.0
20260903184605 96 208 6.0 12.0 0.00 0.00 0.00 28 1015.3
20260903183103 96 209 2.0 14.0 0.00 0.00 0.00 29 1015.6
20260903181602 96 128 4.0 17.0 0.00 0.00 0.00 31 1015.9
20260903174604 94 165 4.0 11.0 0.00 0.00 0.00 33 1016.5
20260903173103 94 156 5.0 11.0 0.00 0.00 0.00 33 1016.8
20260903171603 93 182 5.0 10.0 0.00 0.00 0.00 35 1016.8
20260903170120 92 171 8.0 13.0 0.00 0.00 0.00 36 1016.8
20260903164613 91 212 10.0 15.0 0.00 0.00 0.00 36 1016.8
20260903163102 90 154 8.0 15.0 0.00 0.00 0.00 38 1016.8
20260903161604 90 182 11.0 19.0 0.00 0.00 0.00 38 1016.8
20260903160104 89 202 11.0 18.0 0.00 0.00 0.00 39 1016.6
20260903154600 88 169 8.0 14.0 0.00 0.00 0.00 39 1016.5
20260903153105 87 189 6.0 14.0 0.00 0.00 0.00 41 1016.6
20260903151600 86 178 7.0 14.0 0.00 0.00 0.00 42 1016.4
20260903150112 85 191 8.0 15.0 0.00 0.00 0.00 43 1016.5
20260903144625 85 190 9.0 17.0 0.00 0.00 0.00 43 1016.5
20260903143103 84 176 7.0 14.0 0.00 0.00 0.00 44 1016.3
20260903141613 84 169 8.0 13.0 0.00 0.00 0.00 44 1016.4
20260903140104 83 184 9.0 18.0 0.00 0.00 0.00 44 1016.2
20260903134631 82 186 6.0 12.0 0.00 0.00 0.00 46 1016.3
20260903133113 81 188 7.0 12.0 0.00 0.00 0.00 48 1016.2